Weather History for KGNT - November, 2012

Change the Weather History Date:

Friday, November 16, 2012

  Actual Average Record
Temperature  
Mean Temperature 44 °F -  
Max Temperature 60 °F 54 °F 74 °F (1981)
Min Temperature 28 °F 21 °F 0 °F (1956)
Degree Days  
Heating Degree Days 21    
Moisture  
Dew Point 19 °F    
Average Humidity 35    
Maximum Humidity 70    
Minimum Humidity 20    
Precipitation  
Precipitation 0.00 in - - ()
Sea Level Pressure  
Sea Level Pressure 30.30 in    
Wind  
Wind Speed 9 mph (SSE)    
Max Wind Speed 15 mph    
Max Gust Speed 21 mph    
Visibility 10 miles    
Events      
Averages and records for this station are not official NWS values.
T = Trace of Precipitation, MM = Missing Value Source: NWS Daily Summary

Daily Weather History Graph

Daily Weather History Graph

Search for Another Location

Airport or City:

Trip Planner

Search our weather history database for the weather conditions in past years. The results will help you decide how hot, cold, wet, or windy it might be!

Date:

Astronomy

Nov. 16, 2012 Rise Set
Actual Time 6:47 AM MST 5:04 PM MST
Civil Twilight 6:20 AM MST 5:31 PM MST
Nautical Twilight 5:50 AM MST 6:02 PM MST
Astronomical Twilight 5:20 AM MST 6:32 PM MST
Moon 9:43 AM MST (11/16) 8:09 PM MST (11/16)
Length of Visible Light 11h 10m
Length of Day
10h 16m
Waxing Crescent, 12% of the Moon is Illuminated
Nov 16
Waxing Crescent
Nov 20
First Quarter
Nov 28
Full
Dec 6
Last Quarter
Dec 13
New

Hourly Weather History & Observations

Time (MST) Temp. Windchill Dew Point Humidity Pressure Visibility Wind Dir Wind Speed Gust Speed Precip Events Conditions
12:15 AM 36.7 °F 32.0 °F 20.3 °F 52% 30.36 in 10.0 mi SSE 5.8 mph - N/A   Clear
12:35 AM 37.8 °F 33.3 °F 18.9 °F 47% 30.35 in 10.0 mi SSE 5.8 mph - N/A   Clear
12:55 AM 39.7 °F 34.9 °F 17.6 °F 41% 30.34 in 10.0 mi SSE 6.9 mph - N/A   Clear
1:15 AM 43.9 °F 38.8 °F 13.5 °F 29% 30.33 in 10.0 mi South 9.2 mph - N/A   Clear
1:35 AM 43.9 °F 38.8 °F 12.7 °F 28% 30.34 in 10.0 mi South 9.2 mph - N/A   Clear
1:55 AM 44.2 °F 39.2 °F 12.2 °F 27% 30.35 in 10.0 mi South 9.2 mph - N/A   Clear
2:15 AM 44.6 °F 40.2 °F 12.2 °F 27% 30.35 in 10.0 mi South 8.1 mph - N/A   Clear
2:35 AM 43.9 °F 38.3 °F 12.9 °F 29% 30.34 in 10.0 mi SSE 10.4 mph - N/A   Clear
2:55 AM 42.4 °F 36.5 °F 14.2 °F 32% 30.33 in 10.0 mi South 10.4 mph - N/A   Scattered Clouds
3:15 AM 43.3 °F 37.7 °F 14.7 °F 32% 30.33 in 10.0 mi South 10.4 mph - N/A   Mostly Cloudy
3:35 AM 43.3 °F 37.2 °F 15.3 °F 32% 30.32 in 10.0 mi South 11.5 mph - N/A   Overcast
3:55 AM 43.2 °F 37.9 °F 15.8 °F 33% 30.32 in 10.0 mi South 9.2 mph - N/A   Overcast
4:15 AM 43.3 °F 37.7 °F 16.3 °F 34% 30.32 in 10.0 mi South 10.4 mph 17.3 mph N/A   Overcast
4:35 AM 43.7 °F 38.6 °F 16.5 °F 34% 30.32 in 10.0 mi South 9.2 mph - N/A   Overcast
4:55 AM 43.3 °F 37.7 °F 16.7 °F 34% 30.32 in 10.0 mi South 10.4 mph 17.3 mph N/A   Overcast
5:15 AM 42.8 °F 37.0 °F 17.2 °F 36% 30.32 in 10.0 mi South 10.4 mph - N/A   Overcast
5:35 AM 43.0 °F 37.2 °F 17.6 °F 36% 30.31 in 10.0 mi SSE 10.4 mph 16.1 mph N/A   Overcast
5:55 AM 42.8 °F 37.0 °F 17.6 °F 36% 30.32 in 10.0 mi South 10.4 mph - N/A   Overcast
6:15 AM 42.8 °F 36.6 °F 17.1 °F 36% 30.32 in 10.0 mi South 11.5 mph - N/A   Overcast
6:35 AM 42.3 °F 36.3 °F 17.6 °F 37% 30.32 in 10.0 mi South 10.4 mph - N/A   Overcast
6:55 AM 42.3 °F 36.8 °F 18.3 °F 38% 30.33 in 10.0 mi South 9.2 mph - N/A   Overcast
7:15 AM 41.9 °F 35.9 °F 18.5 °F 39% 30.33 in 10.0 mi South 10.4 mph - N/A   Mostly Cloudy
7:35 AM 42.4 °F 37.0 °F 18.9 °F 39% 30.33 in 10.0 mi South 9.2 mph - N/A   Overcast
7:55 AM 42.8 °F 37.5 °F 19.2 °F 39% 30.34 in 10.0 mi South 9.2 mph - N/A   Mostly Cloudy
8:15 AM 45.7 °F 39.8 °F 19.2 °F 35% 30.34 in 10.0 mi South 12.7 mph - N/A   Scattered Clouds
8:35 AM 45.9 °F 40.4 °F 19.4 °F 35% 30.35 in 10.0 mi South 11.5 mph - N/A   Mostly Cloudy
8:55 AM 46.8 °F - 19.4 °F 34% 30.35 in 10.0 mi SSE 10.4 mph - N/A   Overcast
9:15 AM 47.5 °F - 19.4 °F 33% 30.35 in 10.0 mi SSE 10.4 mph 17.3 mph N/A   Overcast
9:35 AM 48.4 °F - 19.9 °F 32% 30.35 in 10.0 mi SSE 12.7 mph - N/A   Overcast
9:55 AM 49.6 °F - 19.8 °F 31% 30.35 in 10.0 mi SSE 13.8 mph - N/A   Overcast
10:15 AM 50.7 °F - 20.3 °F 30% 30.35 in 10.0 mi SE 15.0 mph - N/A   Overcast
10:35 AM 52.9 °F - 20.5 °F 28% 30.34 in 10.0 mi SE 15.0 mph 19.6 mph N/A   Overcast
10:55 AM 53.8 °F - 20.5 °F 27% 30.34 in 10.0 mi SE 15.0 mph 20.7 mph N/A   Overcast
11:15 AM 54.1 °F - 20.7 °F 27% 30.32 in 10.0 mi SSE 13.8 mph 19.6 mph N/A   Scattered Clouds
11:35 AM 54.7 °F - 20.1 °F 26% 30.31 in 10.0 mi SE 12.7 mph 19.6 mph N/A   Scattered Clouds
11:55 AM 55.9 °F - 20.3 °F 25% 30.30 in 10.0 mi SSE 11.5 mph 19.6 mph N/A   Scattered Clouds
12:15 PM 57.0 °F - 20.1 °F 24% 30.29 in 10.0 mi SSE 11.5 mph 18.4 mph N/A   Clear
12:35 PM 57.4 °F - 20.1 °F 24% 30.28 in 10.0 mi SE 11.5 mph - N/A   Clear
12:55 PM 57.6 °F - 20.3 °F 24% 30.27 in 10.0 mi SSE 10.4 mph 16.1 mph N/A   Clear
1:15 PM 58.1 °F - 20.5 °F 23% 30.26 in 10.0 mi SSE 10.4 mph - N/A   Scattered Clouds
1:35 PM 57.6 °F - 20.3 °F 24% 30.25 in 10.0 mi SE 9.2 mph - N/A   Mostly Cloudy
1:55 PM 57.7 °F - 20.1 °F 23% 30.24 in 10.0 mi SSE 9.2 mph - N/A   Mostly Cloudy
2:15 PM 58.1 °F - 20.1 °F 23% 30.24 in 10.0 mi SSE 10.4 mph - N/A   Mostly Cloudy
2:35 PM 58.3 °F - 19.9 °F 23% 30.24 in 10.0 mi SSE 11.5 mph - N/A   Mostly Cloudy
2:55 PM 60.1 °F - 19.8 °F 21% 30.23 in 10.0 mi SE 12.7 mph 16.1 mph N/A   Mostly Cloudy
3:15 PM 60.1 °F - 18.9 °F 20% 30.23 in 10.0 mi SE 13.8 mph 17.3 mph N/A   Mostly Cloudy
3:35 PM 60.1 °F - 18.9 °F 20% 30.23 in 10.0 mi SE 10.4 mph 18.4 mph N/A   Scattered Clouds
3:55 PM 59.4 °F - 18.9 °F 21% 30.24 in 10.0 mi SE 12.7 mph 17.3 mph N/A   Clear
4:15 PM 58.3 °F - 18.9 °F 22% 30.23 in 10.0 mi SE 12.7 mph - N/A   Clear
4:35 PM 57.2 °F - 19.4 °F 23% 30.23 in 10.0 mi SSE 8.1 mph - N/A   Scattered Clouds
4:55 PM 54.7 °F - 19.9 °F 26% 30.23 in 10.0 mi South 8.1 mph - N/A   Clear
5:15 PM 51.8 °F - 20.3 °F 29% 30.24 in 10.0 mi South 8.1 mph - N/A   Clear
5:35 PM 50.2 °F - 20.3 °F 31% 30.24 in 10.0 mi South 8.1 mph - N/A   Clear
5:55 PM 49.3 °F - 20.7 °F 32% 30.24 in 10.0 mi South 9.2 mph - N/A   Clear
6:15 PM 48.6 °F - 20.7 °F 33% 30.26 in 10.0 mi South 9.2 mph - N/A   Clear
6:55 PM 47.3 °F - 20.3 °F 34% 30.26 in 10.0 mi South 9.2 mph - N/A   Clear
7:15 PM 46.6 °F - 20.3 °F 35% 30.26 in 10.0 mi South 6.9 mph - N/A   Clear
7:35 PM 45.0 °F 41.8 °F 21.0 °F 39% 30.26 in 10.0 mi South 5.8 mph - N/A   Clear
7:55 PM 41.0 °F 39.0 °F 21.2 °F 45% 30.26 in 10.0 mi South 3.5 mph - N/A   Clear
8:15 PM 39.2 °F 37.0 °F 21.6 °F 49% 30.26 in 10.0 mi South 3.5 mph - N/A   Clear
8:35 PM 37.0 °F 33.3 °F 21.7 °F 54% 30.27 in 10.0 mi South 4.6 mph - N/A   Clear
8:55 PM 35.6 °F 31.7 °F 21.7 °F 57% 30.27 in 10.0 mi South 4.6 mph - N/A   Clear
9:15 PM 37.8 °F 33.3 °F 21.9 °F 53% 30.27 in 10.0 mi South 5.8 mph - N/A   Clear
9:35 PM 38.8 °F 34.6 °F 21.2 °F 49% 30.28 in 10.0 mi South 5.8 mph - N/A   Clear
9:55 PM 37.8 °F 33.3 °F 21.2 °F 51% 30.28 in 10.0 mi South 5.8 mph - N/A   Clear
10:15 PM 35.8 °F 33.0 °F 21.2 °F 55% 30.29 in 10.0 mi South 3.5 mph - N/A   Clear
10:35 PM 34.3 °F - 21.7 °F 60% 30.29 in 10.0 mi Calm Calm - N/A   Clear
10:55 PM 35.1 °F - 21.7 °F 58% 30.29 in 10.0 mi Calm Calm - N/A   Clear
11:15 PM 31.8 °F - 21.4 °F 65% 30.30 in 10.0 mi Calm Calm - N/A   Clear
11:35 PM 28.4 °F - 19.6 °F 70% 30.30 in 10.0 mi Calm Calm - N/A   Clear
11:55 PM 30.2 °F - 20.3 °F 67% 30.30 in 10.0 mi Calm Calm - N/A   Clear